Carlsbad, NM

3:43 PM MST on February 12, 2016 (GMT -0700)
Cavern City

Weather History for KCNM - September, 2013

Change the Weather History Date:

Monday, September 23, 2013

  Actual Average Record
Temperature  
Mean Temperature 72 °F -  
Max Temperature 87 °F 81 °F 98 °F (1953)
Min Temperature 57 °F 56 °F 44 °F (1972)
Cooling Degree Days 6    
Growing Degree Days 22 (Base 50)    
Moisture  
Dew Point 47 °F    
Average Humidity 48    
Maximum Humidity 81    
Minimum Humidity 16    
Precipitation  
Precipitation 0.00 in - - ()
Sea Level Pressure  
Sea Level Pressure 29.72 in    
Wind  
Wind Speed 5 mph (WSW)    
Max Wind Speed 9 mph    
Max Gust Speed 16 mph    
Visibility 10 miles    
Events      
Averages and records for this station are not official NWS values.
T = Trace of Precipitation, MM = Missing Value Source: NWS Daily Summary

Daily Weather History Graph

Daily Weather History Graph

Search for Another Location

Airport or City:

Trip Planner

Search our weather history database for the weather conditions in past years. The results will help you decide how hot, cold, wet, or windy it might be!

Date:

Astronomy

Sep. 23, 2013 Rise Set
Actual Time 6:46 AM MDT 6:51 PM MDT
Civil Twilight 6:21 AM MDT 7:16 PM MDT
Nautical Twilight 5:53 AM MDT 7:44 PM MDT
Astronomical Twilight 5:24 AM MDT 8:13 PM MDT
Moon 9:42 PM MDT (9/23) 10:51 AM MDT (9/23)
Length of Visible Light 12h 54m
Length of Day
12h 05m
Waning Gibbous, 81% of the Moon is Illuminated
Sep 23
Waning Gibbous
Sep 26
Last Quarter
Oct 4
New
Oct 11
First Quarter
Oct 18
Full

Hourly Weather History & Observations

Time (MDT) Temp. Dew Point Humidity Pressure Visibility Wind Dir Wind Speed Gust Speed Precip Events Conditions
12:53 AM 63.0 °F 52.0 °F 67% 29.64 in 10.0 mi South 6.9 mph - N/A   Clear
1:53 AM 63.0 °F 51.1 °F 65% 29.63 in 10.0 mi ESE 5.8 mph - N/A   Clear
2:53 AM 60.1 °F 51.1 °F 72% 29.64 in 10.0 mi SW 3.5 mph - N/A   Clear
3:53 AM 60.1 °F 52.0 °F 75% 29.63 in 10.0 mi SSE 5.8 mph - N/A   Clear
4:53 AM 57.0 °F 51.1 °F 81% 29.65 in 10.0 mi NE 4.6 mph - N/A   Clear
5:53 AM 57.0 °F 50.0 °F 77% 29.66 in 10.0 mi SE 4.6 mph - N/A   Clear
6:53 AM 59.0 °F 51.1 °F 75% 29.70 in 10.0 mi Calm Calm - N/A   Clear
7:53 AM 62.1 °F 51.1 °F 67% 29.73 in 10.0 mi North 4.6 mph - N/A   Clear
8:53 AM 69.1 °F 54.0 °F 58% 29.74 in 10.0 mi NNE 4.6 mph - N/A   Clear
9:53 AM 73.9 °F 48.0 °F 40% 29.75 in 10.0 mi North 9.2 mph - N/A   Clear
10:53 AM 75.9 °F 46.0 °F 35% 29.75 in - North 9.2 mph - N/A   Clear
11:53 AM 79.0 °F 48.0 °F 34% 29.74 in 10.0 mi Calm Calm - N/A   Clear
12:53 PM 80.1 °F 46.9 °F 31% 29.73 in 10.0 mi South 3.5 mph - N/A   Clear
1:53 PM 82.9 °F 48.0 °F 29% 29.70 in 10.0 mi Calm Calm - N/A   Clear
2:53 PM 84.9 °F 45.0 °F 25% 29.69 in 10.0 mi South 4.6 mph - N/A   Clear
3:53 PM 86.0 °F 35.1 °F 16% 29.69 in 10.0 mi WSW 6.9 mph 16.1 mph N/A   Clear
4:53 PM 86.0 °F 37.0 °F 18% 29.70 in 10.0 mi NW 9.2 mph - N/A   Clear
5:53 PM 84.0 °F 37.9 °F 19% 29.71 in 10.0 mi West 6.9 mph - N/A   Clear
6:53 PM 73.9 °F 45.0 °F 35% 29.74 in 10.0 mi West 8.1 mph - N/A   Clear
7:53 PM 68.0 °F 46.0 °F 45% 29.77 in 10.0 mi WSW 9.2 mph - N/A   Clear
8:53 PM 68.0 °F 44.1 °F 42% 29.80 in 10.0 mi Calm Calm - N/A   Clear
9:53 PM 66.0 °F 42.1 °F 42% 29.82 in 10.0 mi West 8.1 mph - N/A   Clear
10:53 PM 63.0 °F 45.0 °F 52% 29.84 in 10.0 mi West 9.2 mph - N/A   Clear
11:53 PM 63.0 °F 45.0 °F 52% 29.85 in 10.0 mi WNW 6.9 mph - N/A   Clear